shoulder
new_line
new_line
first
second
third
Al di la della Luna; Beyond the Moon; Astrophotography; Astrofotografia; Danilo Pivato
 
 
         
         
2004

Orbital Elements

Epoch 2004  April 25.0 TT = JDT 2453120.5
T 2004 April 17.09009 TT                                                                MPC
q   0.1682691            (2000.0)                             P                     Q
z +0.0042248     Peri.    332.78609          -0.79295297     +0.06301319
a   0.0000191     Node   222.77771          -0.25279401     +0.87096027
e   0.9992891     Incl.      63.14462           -0.55436520     -0.48729617
                        
 
         
         
2004.04.28   02h 36m UTC
2004.04.28   02h 48m UTC
         
         
       
         
         
         
         
         
         

 

       
 
Since: 01/01/2004
 
       
 
Since: 01/11/2010